Location: Banff
(51.1667°N, 115.5667°W)
Time: 09:03:38
(UTC+00:00)

SR - Pass Details

Date: 03 December 2020
Orbit: 575 x 880 km, 66.7° (Epoch: 19 January)

Event Time Altitude Azimuth Distance (km) Brightness Sun altitude
Rises 01:21:34 0° 208° (SSW) 2,818 ? -15.5°
Reaches altitude 10° 01:23:44 10° 205° (SSW) 1,946 ? -15.8°
Maximum altitude 01:28:03 68° 124° (SE) 687 ? -16.5°
Enters shadow 01:30:29 27° 48° (NE) 1,248 ? -16.8°
